TimeCDT,TemperatureF,Dew PointF,Humidity,Sea Level PressureIn,VisibilityMPH,Wind Direction,Wind SpeedMPH,Gust SpeedMPH,PrecipitationIn,Events,Conditions,WindDirDegrees,DateUTC
12:15 AM,52.5,51.6,97,30.08,7.0,Calm,Calm,-,N/A,,Clear,0,2013-08-19 05:15:00
12:35 AM,53.1,52.3,97,30.09,7.0,Calm,Calm,-,N/A,,Clear,0,2013-08-19 05:35:00
12:55 AM,51.8,50.4,95,30.08,10.0,Calm,Calm,-,N/A,,Clear,0,2013-08-19 05:55:00
1:15 AM,51.6,51.3,99,30.08,5.0,Calm,Calm,-,N/A,,Clear,0,2013-08-19 06:15:00
1:35 AM,50.4,49.8,98,30.08,7.0,Calm,Calm,-,N/A,,Clear,0,2013-08-19 06:35:00
1:55 AM,49.5,48.9,98,30.07,7.0,Calm,Calm,-,N/A,,Clear,0,2013-08-19 06:55:00
2:15 AM,49.6,49.3,99,30.07,5.0,Calm,Calm,-,N/A,,Clear,0,2013-08-19 07:15:00
2:35 AM,48.9,48.6,99,30.07,4.0,Calm,Calm,-,N/A,,Clear,0,2013-08-19 07:35:00
2:55 AM,47.8,47.3,98,30.07,7.0,Calm,Calm,-,N/A,,Clear,0,2013-08-19 07:55:00
3:15 AM,47.8,47.3,98,30.07,7.0,Calm,Calm,-,N/A,,Clear,0,2013-08-19 08:15:00
3:35 AM,48.0,47.5,98,30.07,10.0,Calm,Calm,-,N/A,,Clear,0,2013-08-19 08:35:00
3:55 AM,48.6,48.0,98,30.07,7.0,Calm,Calm,-,N/A,,Mostly Cloudy,0,2013-08-19 08:55:00
4:15 AM,48.7,48.0,97,30.06,10.0,Calm,Calm,-,N/A,,Scattered Clouds,0,2013-08-19 09:15:00
4:35 AM,48.7,47.8,97,30.06,10.0,Calm,Calm,-,N/A,,Clear,0,2013-08-19 09:35:00
4:55 AM,47.1,46.2,97,30.06,10.0,Calm,Calm,-,N/A,,Clear,0,2013-08-19 09:55:00
5:15 AM,46.9,45.9,96,30.06,10.0,Calm,Calm,-,N/A,,Clear,0,2013-08-19 10:15:00
5:35 AM,47.5,47.1,99,30.06,7.0,Calm,Calm,-,N/A,,Clear,0,2013-08-19 10:35:00
5:55 AM,46.6,46.0,98,30.06,7.0,Calm,Calm,-,N/A,,Clear,0,2013-08-19 10:55:00
6:15 AM,46.6,45.7,97,30.06,10.0,Calm,Calm,-,N/A,,Clear,0,2013-08-19 11:15:00
6:35 AM,47.3,45.9,95,30.05,10.0,Calm,Calm,-,N/A,,Clear,0,2013-08-19 11:35:00
6:55 AM,49.5,48.7,97,30.05,7.0,Calm,Calm,-,N/A,,Clear,0,2013-08-19 11:55:00
7:15 AM,51.8,50.9,97,30.04,10.0,Calm,Calm,-,N/A,,Clear,0,2013-08-19 12:15:00
7:35 AM,57.4,55.4,93,30.04,10.0,Calm,Calm,-,N/A,,Clear,0,2013-08-19 12:35:00
7:55 AM,61.9,57.0,84,30.05,10.0,WSW,4.6,-,N/A,,Clear,250,2013-08-19 12:55:00
8:15 AM,63.3,57.6,81,30.05,10.0,SW,6.9,-,N/A,,Clear,230,2013-08-19 13:15:00
8:35 AM,65.3,57.9,77,30.05,10.0,SW,5.8,-,N/A,,Clear,230,2013-08-19 13:35:00
8:55 AM,66.6,58.5,75,30.07,10.0,West,4.6,-,N/A,,Clear,270,2013-08-19 13:55:00
9:15 AM,-9999,-9999,N/A,-9999,-9999.0,North,-9999.0,-,N/A,,Unknown,0,2013-08-19 14:15:00
9:35 AM,67.5,59.5,76,30.07,10.0,Calm,Calm,-,N/A,,Clear,0,2013-08-19 14:35:00
9:55 AM,68.9,59.5,72,30.06,10.0,SW,5.8,-,N/A,,Clear,220,2013-08-19 14:55:00
10:15 AM,69.8,60.1,71,30.06,10.0,SW,6.9,-,N/A,,Clear,230,2013-08-19 15:15:00
10:35 AM,71.4,61.2,70,30.06,10.0,SW,6.9,-,N/A,,Clear,220,2013-08-19 15:35:00
10:55 AM,73.2,61.2,66,30.05,10.0,SW,10.4,-,N/A,,Clear,230,2013-08-19 15:55:00
11:15 AM,75.2,61.9,63,30.04,10.0,WSW,15.0,-,N/A,,Clear,250,2013-08-19 16:15:00
11:35 AM,73.8,60.8,64,30.03,10.0,SW,11.5,18.4,N/A,,Clear,220,2013-08-19 16:35:00
11:55 AM,75.2,61.3,62,30.03,10.0,SW,10.4,-,N/A,,Clear,230,2013-08-19 16:55:00
12:15 PM,75.2,60.4,60,30.02,10.0,WSW,10.4,20.7,N/A,,Clear,240,2013-08-19 17:15:00
12:35 PM,75.7,61.2,60,30.02,10.0,West,13.8,-,N/A,,Clear,260,2013-08-19 17:35:00
12:55 PM,75.6,61.0,60,30.01,10.0,SW,11.5,-,N/A,,Clear,230,2013-08-19 17:55:00
1:15 PM,77.9,61.9,58,30.01,10.0,WSW,13.8,19.6,N/A,,Clear,250,2013-08-19 18:15:00
1:35 PM,76.1,61.3,60,30.02,10.0,WSW,10.4,-,N/A,,Scattered Clouds,240,2013-08-19 18:35:00
1:55 PM,76.6,62.1,61,30.02,10.0,SW,8.1,-,N/A,,Mostly Cloudy,230,2013-08-19 18:55:00
2:15 PM,76.5,61.9,61,30.02,10.0,WSW,8.1,-,N/A,,Overcast,240,2013-08-19 19:15:00
2:35 PM,77.0,63.0,62,30.02,10.0,West,6.9,-,N/A,,Overcast,260,2013-08-19 19:35:00
2:55 PM,76.6,63.3,63,30.01,10.0,West,5.8,-,N/A,,Overcast,260,2013-08-19 19:55:00
3:15 PM,76.1,63.3,64,30.01,10.0,SW,5.8,-,N/A,,Overcast,230,2013-08-19 20:15:00
3:35 PM,77.4,64.0,63,30.01,10.0,WSW,8.1,-,N/A,,Overcast,240,2013-08-19 20:35:00
3:55 PM,78.4,64.2,62,30.00,10.0,WSW,10.4,-,N/A,,Mostly Cloudy,250,2013-08-19 20:55:00
4:15 PM,79.7,64.4,59,30.00,10.0,WSW,6.9,-,N/A,,Scattered Clouds,240,2013-08-19 21:15:00
4:35 PM,78.8,63.9,60,30.00,10.0,WSW,9.2,-,N/A,,Scattered Clouds,250,2013-08-19 21:35:00
4:55 PM,79.3,64.2,60,30.00,10.0,West,10.4,-,N/A,,Mostly Cloudy,280,2013-08-19 21:55:00
5:15 PM,79.7,64.0,59,29.99,10.0,WSW,10.4,-,N/A,,Scattered Clouds,250,2013-08-19 22:15:00
5:35 PM,78.6,63.9,60,29.99,10.0,WSW,10.4,-,N/A,,Mostly Cloudy,250,2013-08-19 22:35:00
5:55 PM,78.4,63.9,61,29.99,10.0,WSW,11.5,-,N/A,,Scattered Clouds,240,2013-08-19 22:55:00
6:15 PM,78.3,64.2,62,29.99,10.0,WSW,6.9,-,N/A,,Clear,250,2013-08-19 23:15:00
6:35 PM,77.9,64.2,63,29.99,10.0,WSW,6.9,-,N/A,,Clear,250,2013-08-19 23:35:00
6:55 PM,76.8,64.8,66,29.98,10.0,SW,3.5,-,N/A,,Clear,230,2013-08-19 23:55:00
7:15 PM,75.7,64.9,69,29.98,10.0,WSW,3.5,-,N/A,,Clear,240,2013-08-20 00:15:00
7:35 PM,74.7,64.6,71,29.98,10.0,SW,3.5,-,N/A,,Clear,230,2013-08-20 00:35:00
7:55 PM,72.7,64.6,76,29.99,10.0,SSW,4.6,-,N/A,,Clear,210,2013-08-20 00:55:00
8:15 PM,71.8,64.4,77,29.99,10.0,SSW,3.5,-,N/A,,Clear,210,2013-08-20 01:15:00
8:35 PM,70.3,63.9,80,29.98,10.0,SSW,4.6,-,N/A,,Clear,200,2013-08-20 01:35:00
8:55 PM,70.3,63.7,79,29.99,10.0,Calm,Calm,-,N/A,,Clear,0,2013-08-20 01:55:00
9:15 PM,70.2,63.5,79,29.99,10.0,Calm,Calm,-,N/A,,Clear,0,2013-08-20 02:15:00
9:35 PM,68.5,63.1,83,29.99,10.0,SW,3.5,-,N/A,,Clear,220,2013-08-20 02:35:00
9:55 PM,68.0,63.1,84,29.99,10.0,SW,3.5,-,N/A,,Clear,230,2013-08-20 02:55:00
10:15 PM,66.7,62.6,86,30.00,10.0,Calm,Calm,-,N/A,,Clear,0,2013-08-20 03:15:00
10:35 PM,65.7,62.6,90,30.00,10.0,Calm,Calm,-,N/A,,Clear,0,2013-08-20 03:35:00
10:55 PM,65.5,62.2,89,30.00,10.0,Calm,Calm,-,N/A,,Clear,0,2013-08-20 03:55:00
11:15 PM,64.8,61.9,90,30.00,10.0,Calm,Calm,-,N/A,,Clear,0,2013-08-20 04:15:00
11:35 PM,64.6,62.1,92,30.00,10.0,Calm,Calm,-,N/A,,Clear,0,2013-08-20 04:35:00
11:55 PM,63.9,62.1,94,30.00,7.0,Calm,Calm,-,N/A,,Clear,0,2013-08-20 04:55:00